TimeCST,TemperatureF,Dew PointF,Humidity,Sea Level PressureIn,VisibilityMPH,Wind Direction,Wind SpeedMPH,Gust SpeedMPH,PrecipitationIn,Events,Conditions,WindDirDegrees,DateUTC
12:54 AM,21.9,12.0,66,29.93,10.0,SSW,20.7,26.5,N/A,,Clear,210,2013-01-16 06:54:00
1:54 AM,21.0,12.0,68,29.90,10.0,SSW,19.6,-,N/A,,Clear,200,2013-01-16 07:54:00
2:54 AM,21.9,12.9,68,29.86,10.0,SSW,20.7,28.8,N/A,,Scattered Clouds,200,2013-01-16 08:54:00
3:54 AM,21.9,12.9,68,29.83,10.0,SSW,21.9,28.8,N/A,,Overcast,210,2013-01-16 09:54:00
4:54 AM,23.0,14.0,68,29.78,10.0,SSW,25.3,33.4,N/A,,Overcast,210,2013-01-16 10:54:00
5:54 AM,23.0,16.0,74,29.75,10.0,SSW,19.6,27.6,0.00,,Overcast,210,2013-01-16 11:54:00
6:54 AM,24.1,18.0,77,29.78,6.0,SW,21.9,-,N/A,,Haze,230,2013-01-16 12:54:00
7:13 AM,24.8,19.4,80,29.72,7.0,SW,21.9,-,N/A,,Overcast,230,2013-01-16 13:13:00
7:54 AM,25.0,19.9,81,29.77,7.0,SW,20.7,-,0.00,,Overcast,230,2013-01-16 13:54:00
8:54 AM,27.0,21.9,81,29.79,7.0,WSW,19.6,-,N/A,,Overcast,240,2013-01-16 14:54:00
9:15 AM,26.6,23.0,86,29.74,1.8,WSW,17.3,-,0.00,Snow,Light Snow,240,2013-01-16 15:15:00
9:24 AM,26.6,23.0,86,29.74,3.0,SW,17.3,-,0.00,Snow,Light Snow,230,2013-01-16 15:24:00
9:44 AM,28.4,24.8,86,29.73,7.0,WSW,18.4,-,0.00,,Overcast,240,2013-01-16 15:44:00
9:54 AM,28.9,24.1,82,29.80,7.0,WSW,16.1,-,0.00,,Overcast,250,2013-01-16 15:54:00
10:54 AM,30.9,26.1,82,29.81,8.0,WSW,16.1,-,N/A,,Overcast,240,2013-01-16 16:54:00
11:02 AM,32.0,26.6,80,29.75,9.0,WSW,15.0,-,N/A,,Overcast,250,2013-01-16 17:02:00
11:32 AM,35.6,28.4,75,29.75,10.0,West,17.3,-,N/A,,Overcast,260,2013-01-16 17:32:00
11:49 AM,35.6,28.4,75,29.75,10.0,West,17.3,-,N/A,,Overcast,270,2013-01-16 17:49:00
11:54 AM,37.0,28.9,73,29.79,10.0,West,16.1,-,N/A,,Mostly Cloudy,270,2013-01-16 17:54:00
12:12 PM,39.2,30.2,70,29.74,10.0,West,15.0,23.0,N/A,,Mostly Cloudy,280,2013-01-16 18:12:00
12:23 PM,39.2,30.2,70,29.74,10.0,West,19.6,25.3,N/A,,Scattered Clouds,280,2013-01-16 18:23:00
12:32 PM,39.2,30.2,70,29.75,10.0,WNW,17.3,27.6,N/A,,Mostly Cloudy,290,2013-01-16 18:32:00
12:40 PM,39.2,30.2,70,29.75,10.0,West,17.3,27.6,N/A,,Mostly Cloudy,280,2013-01-16 18:40:00
12:51 PM,37.4,30.2,75,29.76,10.0,West,17.3,-,N/A,,Overcast,280,2013-01-16 18:51:00
12:54 PM,37.9,30.0,73,29.81,10.0,WNW,20.7,26.5,N/A,,Overcast,290,2013-01-16 18:54:00
1:54 PM,35.6,30.2,81,29.77,7.0,WNW,19.6,-,N/A,,Overcast,300,2013-01-16 19:54:00
2:02 PM,35.6,30.2,81,29.78,7.0,WNW,13.8,-,0.00,,Overcast,300,2013-01-16 20:02:00
2:36 PM,35.6,30.2,81,29.80,1.8,NW,18.4,-,0.00,Snow,Light Snow,310,2013-01-16 20:36:00
2:54 PM,34.0,30.9,89,29.86,1.2,WNW,12.7,-,0.01,Snow,Light Snow,300,2013-01-16 20:54:00
3:54 PM,34.0,30.0,85,29.91,1.2,NW,12.7,-,0.01,Snow,Light Snow,310,2013-01-16 21:54:00
4:16 PM,33.8,30.2,87,29.87,2.5,NW,17.3,-,0.00,Snow,Light Snow,320,2013-01-16 22:16:00
4:20 PM,33.8,30.2,87,29.87,4.0,NW,16.1,-,0.00,Snow,Light Snow,320,2013-01-16 22:20:00
4:34 PM,33.8,28.4,81,29.89,7.0,NW,15.0,-,0.01,,Overcast,320,2013-01-16 22:34:00
4:54 PM,33.1,28.0,82,29.95,10.0,NNW,13.8,-,0.01,Rain,Light Rain,330,2013-01-16 22:54:00
5:27 PM,32.0,26.6,80,29.93,10.0,NNW,13.8,-,0.00,,Overcast,340,2013-01-16 23:27:00
5:50 PM,30.2,26.6,86,29.95,10.0,NNW,15.0,-,0.00,,Overcast,330,2013-01-16 23:50:00
5:54 PM,30.9,26.1,82,30.01,10.0,NNW,13.8,-,0.00,,Overcast,330,2013-01-16 23:54:00
6:11 PM,30.2,24.8,80,29.97,10.0,North,13.8,-,N/A,,Overcast,350,2013-01-17 00:11:00
6:47 PM,28.4,21.2,74,30.00,10.0,NW,13.8,-,N/A,,Scattered Clouds,320,2013-01-17 00:47:00
6:54 PM,28.9,23.0,78,30.06,10.0,NW,15.0,-,N/A,,Mostly Cloudy,320,2013-01-17 00:54:00
7:01 PM,28.4,21.2,74,30.00,10.0,NNW,11.5,-,N/A,,Partly Cloudy,330,2013-01-17 01:01:00
7:54 PM,26.1,19.0,75,30.12,10.0,NNW,17.3,24.2,N/A,,Clear,330,2013-01-17 01:54:00
8:42 PM,24.8,15.8,69,30.09,10.0,NNW,17.3,-,N/A,,Mostly Cloudy,330,2013-01-17 02:42:00
8:50 PM,24.8,14.0,64,30.09,10.0,NW,17.3,-,N/A,,Partly Cloudy,320,2013-01-17 02:50:00
8:54 PM,24.1,14.0,65,30.16,10.0,NW,16.1,-,N/A,,Partly Cloudy,320,2013-01-17 02:54:00
9:54 PM,19.9,10.0,65,30.19,10.0,NNW,9.2,-,N/A,,Clear,330,2013-01-17 03:54:00
10:54 PM,18.0,8.1,65,30.20,10.0,NNW,11.5,-,N/A,,Clear,330,2013-01-17 04:54:00
11:54 PM,17.1,8.1,68,30.22,10.0,NW,11.5,-,N/A,,Clear,320,2013-01-17 05:54:00